Previsão horária em Barnowiec

Hoje, 23 Julho, Sexta-feira

Tempo Temperatura Precipitação Vento Pressão Humidade
00:00 +13°C° 0 mm 1 m/s 751 mmHg 89%
01:00 +13°C° 0 mm 1 m/s 751 mmHg 91%
02:00 +13°C° 0 mm 1 m/s 751 mmHg 91%
03:00 +13°C° 0 mm 1 m/s 751 mmHg 92%
04:00 +12°C° 0 mm 1 m/s 751 mmHg 93%
05:00 +14°C° 0 mm 2 m/s 751 mmHg 85%
06:00 +16°C° 0 mm 2 m/s 751 mmHg 77%
07:00 +18°C° 0 mm 2 m/s 751 mmHg 69%
08:00 +20°C° 0 mm 2 m/s 751 mmHg 62%
09:00 +21°C° 0 mm 2 m/s 751 mmHg 55%
10:00 +24°C° 0 mm 2 m/s 751 mmHg 48%
11:00 +25°C° 0 mm 3 m/s 750 mmHg 45%
12:00 +26°C° 0 mm 3 m/s 750 mmHg 42%
13:00 +26°C° 0 mm 3 m/s 750 mmHg 38%
14:00 +26°C° 0 mm 3 m/s 750 mmHg 40%
15:00 +26°C° 0 mm 3 m/s 750 mmHg 41%
16:00 +26°C° 0 mm 3 m/s 750 mmHg 42%
17:00 +25°C° 0 mm 3 m/s 750 mmHg 48%
18:00 +22°C° 0 mm 3 m/s 750 mmHg 55%
19:00 +20°C° 0 mm 2 m/s 750 mmHg 61%
20:00 +19°C° 0 mm 2 m/s 750 mmHg 67%
21:00 +18°C° 0 mm 1 m/s 750 mmHg 73%
22:00 +16°C° 0 mm 1 m/s 750 mmHg 79%
23:00 +15°C° 0 mm 1 m/s 750 mmHg 80%

Amanhã, 24 Julho, Sábado

Tempo Temperatura Precipitação Vento Pressão Humidade
00:00 +15°C° 0 mm 1 m/s 750 mmHg 81%
01:00 +15°C° 0 mm 1 m/s 750 mmHg 82%
02:00 +14°C° 0 mm 1 m/s 750 mmHg 83%
03:00 +14°C° 0 mm 1 m/s 750 mmHg 84%
04:00 +14°C° 0 mm 1 m/s 750 mmHg 85%
05:00 +16°C° 0 mm 1 m/s 750 mmHg 76%
06:00 +19°C° 0 mm 1 m/s 750 mmHg 68%
07:00 +22°C° 0 mm 1 m/s 750 mmHg 60%
08:00 +23°C° 0 mm 1 m/s 750 mmHg 54%
09:00 +25°C° 0 mm 2 m/s 750 mmHg 48%
10:00 +27°C° 0 mm 2 m/s 750 mmHg 43%
11:00 +27°C° 0 mm 2 m/s 750 mmHg 43%
12:00 +27°C° 0 mm 2 m/s 750 mmHg 43%
13:00 +27°C° 0 mm 2 m/s 750 mmHg 42%
14:00 +26°C° 0 mm 2 m/s 750 mmHg 47%
15:00 +25°C° 0 mm 2 m/s 750 mmHg 51%
16:00 +25°C° 0 mm 2 m/s 750 mmHg 56%
17:00 +24°C° 0 mm 2 m/s 750 mmHg 58%
18:00 +24°C° 0 mm 3 m/s 749 mmHg 60%
19:00 +22°C° 0 mm 3 m/s 749 mmHg 62%
20:00 +21°C° 0 mm 3 m/s 750 mmHg 65%
21:00 +20°C° 0 mm 3 m/s 750 mmHg 69%
22:00 +19°C° 0 mm 3 m/s 750 mmHg 73%
23:00 +18°C° 0 mm 3 m/s 750 mmHg 74%

Depois de amanhã, 25 Julho, Domingo

Tempo Temperatura Precipitação Vento Pressão Humidade
00:00 +18°C° 0 mm 2 m/s 750 mmHg 75%
01:00 +17°C° 0 mm 2 m/s 750 mmHg 76%
02:00 +17°C° 0 mm 2 m/s 749 mmHg 76%
03:00 +17°C° 0 mm 2 m/s 749 mmHg 77%
04:00 +17°C° 0 mm 2 m/s 749 mmHg 77%
05:00 +19°C° 0 mm 2 m/s 749 mmHg 71%
06:00 +20°C° 0 mm 3 m/s 749 mmHg 65%
07:00 +22°C° 0 mm 3 m/s 749 mmHg 59%
08:00 +25°C° 0 mm 3 m/s 749 mmHg 51%
09:00 +27°C° 0 mm 4 m/s 749 mmHg 44%
10:00 +29°C° 0 mm 4 m/s 749 mmHg 36%
11:00 +29°C° 0 mm 4 m/s 749 mmHg 34%
12:00 +30°C° 0 mm 4 m/s 749 mmHg 32%
13:00 +32°C° 0 mm 4 m/s 748 mmHg 30%
14:00 +32°C° 0 mm 4 m/s 748 mmHg 31%
15:00 +32°C° 0 mm 4 m/s 748 mmHg 32%
16:00 +32°C° 0 mm 4 m/s 748 mmHg 33%
17:00 +29°C° 0.1 mm 4 m/s 748 mmHg 41%
18:00 +27°C° 0.1 mm 5 m/s 748 mmHg 50%
19:00 +25°C° 0.1 mm 5 m/s 748 mmHg 58%
20:00 +23°C° 0.4 mm 4 m/s 748 mmHg 69%
21:00 +21°C° 0.4 mm 3 m/s 749 mmHg 79%
22:00 +19°C° 0.4 mm 3 m/s 749 mmHg 89%
23:00 +19°C° 0 mm 2 m/s 749 mmHg 89%

26 Julho, Segunda-feira

Tempo Temperatura Precipitação Vento Pressão Humidade
00:00 +19°C° 0 mm 2 m/s 749 mmHg 89%
01:00 +18°C° 0 mm 2 m/s 748 mmHg 89%
02:00 +18°C° 0.1 mm 2 m/s 748 mmHg 90%
03:00 +19°C° 0.1 mm 1 m/s 748 mmHg 90%
04:00 +19°C° 0.1 mm 1 m/s 748 mmHg 90%
05:00 +19°C° 0.8 mm 1 m/s 748 mmHg 92%
06:00 +19°C° 0.8 mm 1 m/s 748 mmHg 93%
07:00 +18°C° 0.8 mm 2 m/s 748 mmHg 95%
08:00 +20°C° 0.2 mm 2 m/s 748 mmHg 90%
09:00 +21°C° 0.2 mm 3 m/s 748 mmHg 85%
10:00 +22°C° 0.2 mm 4 m/s 748 mmHg 80%
11:00 +24°C° 0.1 mm 3 m/s 747 mmHg 75%
12:00 +25°C° 0.1 mm 2 m/s 747 mmHg 70%
13:00 +26°C° 0.1 mm 1 m/s 747 mmHg 65%
14:00 +26°C° 0.4 mm 1 m/s 747 mmHg 64%
15:00 +27°C° 0.4 mm 1 m/s 747 mmHg 63%
16:00 +27°C° 0.4 mm 1 m/s 746 mmHg 62%
17:00 +26°C° 0.1 mm 1 m/s 746 mmHg 66%
18:00 +26°C° 0.1 mm 1 m/s 746 mmHg 70%
19:00 +25°C° 0.1 mm 1 m/s 745 mmHg 74%
20:00 +24°C° 0.1 mm 1 m/s 746 mmHg 78%
21:00 +23°C° 0.1 mm 1 m/s 746 mmHg 82%
22:00 +20°C° 0.1 mm 2 m/s 746 mmHg 86%
23:00 +21°C° 0 mm 1 m/s 746 mmHg 87%

27 Julho, Terça-feira

Tempo Temperatura Precipitação Vento Pressão Humidade
00:00 +20°C° 0 mm 1 m/s 746 mmHg 87%
01:00 +20°C° 0 mm 1 m/s 746 mmHg 88%
02:00 +20°C° 0 mm 1 m/s 746 mmHg 87%
03:00 +20°C° 0 mm 1 m/s 746 mmHg 86%
04:00 +19°C° 0 mm 2 m/s 746 mmHg 85%
05:00 +20°C° 0 mm 2 m/s 747 mmHg 81%
06:00 +21°C° 0 mm 2 m/s 747 mmHg 77%
07:00 +23°C° 0 mm 2 m/s 747 mmHg 73%
08:00 +24°C° 0 mm 3 m/s 747 mmHg 65%
09:00 +26°C° 0 mm 3 m/s 747 mmHg 57%
10:00 +28°C° 0 mm 4 m/s 747 mmHg 50%
11:00 +29°C° 0 mm 4 m/s 747 mmHg 46%
12:00 +29°C° 0 mm 4 m/s 747 mmHg 43%
13:00 +30°C° 0 mm 4 m/s 747 mmHg 39%
14:00 +29°C° 0 mm 4 m/s 747 mmHg 46%
15:00 +27°C° 0 mm 3 m/s 747 mmHg 53%
16:00 +26°C° 0 mm 2 m/s 748 mmHg 60%
17:00 +25°C° 0.4 mm 2 m/s 747 mmHg 66%
18:00 +24°C° 0.4 mm 2 m/s 747 mmHg 72%
19:00 +23°C° 0.4 mm 1 m/s 747 mmHg 77%
20:00 +22°C° 0.1 mm 1 m/s 747 mmHg 81%
21:00 +21°C° 0.1 mm 1 m/s 748 mmHg 84%
22:00 +18°C° 0.1 mm 0 m/s 748 mmHg 87%
23:00 +19°C° 0 mm 1 m/s 748 mmHg 88%

28 Julho, Quarta-feira

Tempo Temperatura Precipitação Vento Pressão Humidade
00:00 +19°C° 0 mm 1 m/s 748 mmHg 89%
01:00 +19°C° 0 mm 1 m/s 747 mmHg 89%
02:00 +18°C° 0 mm 2 m/s 747 mmHg 90%
03:00 +17°C° 0 mm 2 m/s 747 mmHg 91%
04:00 +17°C° 0 mm 2 m/s 747 mmHg 92%
05:00 +18°C° 0 mm 2 m/s 747 mmHg 89%
06:00 +18°C° 0 mm 2 m/s 747 mmHg 87%
07:00 +19°C° 0 mm 2 m/s 747 mmHg 85%
08:00 +20°C° 0.1 mm 3 m/s 747 mmHg 77%
09:00 +22°C° 0.1 mm 3 m/s 747 mmHg 70%
10:00 +23°C° 0.1 mm 4 m/s 747 mmHg 62%
11:00 +25°C° 0 mm 4 m/s 747 mmHg 56%
12:00 +27°C° 0 mm 4 m/s 747 mmHg 50%
13:00 +28°C° 0 mm 4 m/s 747 mmHg 44%
14:00 +27°C° 0 mm 4 m/s 747 mmHg 46%
15:00 +27°C° 0 mm 3 m/s 748 mmHg 48%
16:00 +26°C° 0 mm 2 m/s 748 mmHg 51%
17:00 +25°C° 0 mm 2 m/s 748 mmHg 54%
18:00 +24°C° 0 mm 1 m/s 748 mmHg 57%
19:00 +24°C° 0 mm 1 m/s 748 mmHg 60%
20:00 +23°C° 0 mm 1 m/s 748 mmHg 61%
21:00 +22°C° 0 mm 1 m/s 748 mmHg 63%
22:00 +21°C° 0 mm 2 m/s 748 mmHg 64%
23:00 +20°C° 0 mm 2 m/s 748 mmHg 68%
Mostrar mais